SCP
0 0 0 0 0 0 0 0 0 0 0 0 0 0 0 0 0 0 0 0 0 0 0 1 0 0 0 0 0 0 0 0 0 0 0 0 1 1 0 0 0 0 0 0 0 0 0 0 0
0 0 0 0 0 0 0 0 0 0 0 0 0 0 0 0 0 0 0 0 0 0 0 1 1 1 0 0 0 0 0 0 0 0 0 0 0 0 0 0 0 0 0 0 0 0 0 0 0
0 0 0 0 0 0 0 0 0 0 0 0 0 0 0 0 0 0 0 0 0 0 0 1 1 1 1 1 0 0 0 0 0 0 0 0 0 0 0 0 0 0 0 0 0 0 0 0 0
0 0 0 0 0 0 0 0 0 0 0 0 0 0 0 0 0 0 0 0 0 0 0 1 1 1 1 1 1 0 0 0 0 0 0 0 0 0 0 0 0 0 0 0 0 0 0 0 0
0 0 0 0 0 0 0 0 0 0 0 0 0 0 0 0 0 0 0 0 0 0 0 1 1 1 1 1 1 1 1 1 1 0 0 1 0 0 0 0 0 0 0 0 0 0 0 0 0
0 0 0 0 0 0 0 0 0 0 0 0 0 0 0 0 0 0 0 0 0 0 0 1 1 1 1 1 1 1 1 1 1 1 1 1 1 1 0 0 0 0 0 0 0 0 0 0 0
0 0 0 0 0 0 0 0 0 0 0 0 0 0 0 0 0 0 0 0 0 0 0 1 1 1 1 1 1 1 1 1 1 1 1 1 1 1 0 0 0 0 0 0 0 0 0 0 0
0 0 0 0 0 0 0 0 0 0 0 0 0 0 0 0 0 0 0 0 0 0 0 0 1 1 1 1 1 1 1 1 1 1 1 1 1 1 0 0 0 0 0 0 0 0 0 0 0
0 0 0 0 0 0 0 0 0 0 0 0 0 0 0 0 0 0 0 0 0 0 0 0 1 1 1 1 1 1 1 1 1 1 1 0 0 0 0 0 0 0 0 0 0 0 0 0 0
0 0 0 0 0 0 0 0 0 0 0 0 0 0 0 0 0 0 0 0 0 0 0 0 0 1 1 1 1 1 1 1 1 0 0 0 0 0 0 0 0 0 0 0 0 0 0 0 0
0 0 0 0 0 0 0 0 0 0 0 0 0 0 0 0 0 0 0 0 0 0 0 0 0 0 1 1 1 1 1 1 1 0 0 0 0 0 0 0 0 0 0 0 0 0 0 0 0
0 0 0 0 0 0 0 0 0 0 0 0 0 0 0 0 0 0 0 0 0 0 0 0 0 0 0 0 0 0 1 1 1 0 0 0 0 0 0 0 0 0 0 0 0 0 0 0 0
0 0 0 0 0 0 0 0 0 0 0 0 0 0 0 0 0 0 0 0 0 0 0 0 0 0 0 0 0 0 0 1 1 0 0 0 0 0 0 0 0 0 0 0 0 0 0 0 0
0 0 0 0 0 0 0 0 0 0 0 0 0 0 0 0 0 0 0 0 0 0 0 0 0 0 0 0 0 0 0 0 1 0 0 0 0 0 0 0 0 0 0 0 0 0 0 0 0
0 0 0 0 0 0 0 0 0 0 0 0 0 0 0 0 0 0 0 0 0 0 0 0 0 0 0 0 0 0 0 0 0 0 0 0 0 0 0 0 0 0 0 0 0 0 0 0 0
0 0 0 0 0 0 0 0 0 0 0 0 0 0 0 0 0 0 0 0 0 0 0 0 0 0 0 0 0 0 0 0 0 0 0 0 0 0 0 0 0 0 0 0 0 0 0 0 0
0 0 0 0 0 0 0 0 0 0 0 0 0 0 0 0 0 0 0 0 0 0 0 0 0 0 0 0 0 0 0 0 0 0 0 0 0 0 0 0 0 0 0 0 0 0 0 0 0
0 0 0 0 0 0 0 0 0 0 0 0 0 0 0 0 0 0 0 0 0 0 0 0 0 0 0 0 0 0 0 0 0 0 0 0 0 0 0 0 0 0 0 0 0 0 0 0 0
0 0 0 0 0 0 0 0 0 0 0 0 0 0 0 0 0 0 0 0 0 0 0 0 0 0 0 0 0 0 0 0 0 0 0 0 0 0 0 0 0 0 0 0 0 0 0 0 0
0 0 0 0 0 0 0 0 0 0 0 0 0 0 0 0 0 0 0 0 0 0 0 0 0 0 0 0 0 0 0 0 0 0 0 0 0 0 0 0 0 0 0 0 0 0 0 0 0
0 0 0 0 0 0 0 0 0 0 0 0 0 0 0 0 0 0 0 0 0 0 0 0 0 0 0 0 0 0 0 0 0 0 0 0 0 0 0 0 0 0 0 0 0 0 0 0 0
0 0 0 0 0 0 0 0 0 0 0 0 0 0 0 0 0 0 0 0 0 0 0 0 0 0 0 0 0 0 0 0 0 0 0 0 0 0 0 0 0 0 0 0 0 0 0 0 0
0 0 0 0 0 0 0 0 0 0 0 0 0 0 0 0 0 0 0 0 0 0 0 0 0 0 0 0 0 0 0 0 0 0 0 0 0 0 0 0 0 0 0 0 0 0 0 0 0
0 0 0 0 0 0 0 0 0 0 0 0 0 0 0 0 0 0 0 0 0 0 0 0 0 0 0 0 0 0 0 0 0 0 0 0 0 0 0 0 0 0 0 0 0 0 0 0 0
0 0 0 0 0 0 0 0 0 0 0 0 0 0 0 0 0 0 0 0 0 0 0 0 0 0 0 0 0 0 0 0 0 0 0 0 0 0 0 0 0 0 0 0 0 0 0 0 0
0 0 0 0 0 0 0 0 0 0 0 0 0 0 0 0 0 0 0 0 0 0 0 0 0 0 0 0 0 0 0 0 0 0 0 0 0 0 0 0 0 0 0 0 0 0 0 0 0
0 0 0 0 0 0 0 0 0 0 0 0 0 0 0 0 0 0 0 0 0 0 0 0 0 0 0 0 0 0 0 0 0 0 0 0 0 0 0 0 0 0 0 0 0 0 0 0 0
0 0 0 0 0 0 0 0 0 0 0 0 0 0 0 0 0 0 0 0 0 0 0 0 0 0 0 0 0 0 0 0 0 0 0 0 0 0 0 0 0 0 0 0 0 0 0 0 0
0 0 0 0 0 0 0 0 0 0 0 0 0 0 0 0 0 0 0 0 0 0 0 0 0 0 0 0 0 0 0 0 0 0 0 0 0 0 0 0 0 0 0 0 0 0 0 0 0
0 0 0 0 0 0 0 0 0 0 0 0 0 0 0 0 0 0 0 0 0 0 0 0 0 0 0 0 0 0 0 0 0 0 0 0 0 0 0 0 0 0 0 0 0 0 0 0 0
Wind_Speed
7 4 2 5 7 7 2 2 2 1 1 1 1 1 1 2 2 2 1 6 7 10 12 14 14 15 14 14 14 13 12 12 11 11 10 9 9 10 10 10 10 9 8 7 7 7 7 7 7
3 3 5 6 7 4 1 2 1 1 3 1 1 0 1 1 2 3 2 6 9 11 11 12 14 15 15 15 14 14 14 13 12 11 10 10 10 10 10 10 9 8 6 6 6 6 6 6 6
4 3 5 5 5 5 3 3 2 1 1 2 1 0 1 2 3 4 4 6 9 10 10 11 14 15 15 15 15 14 13 13 13 13 12 11 11 10 10 9 8 7 6 5 5 5 5 5 5
4 5 6 6 1 4 5 5 3 2 1 1 1 1 2 1 3 5 4 8 10 8 9 11 16 16 15 15 15 14 14 13 13 13 13 13 12 11 10 8 7 7 6 5 5 5 5 4 4
5 5 6 4 3 2 3 4 2 2 2 2 1 0 3 3 2 1 4 7 9 8 8 10 15 15 15 15 15 14 13 13 12 12 12 13 12 11 10 9 8 7 6 5 5 5 4 4 4
5 5 5 1 3 2 2 1 3 2 2 2 0 1 2 1 1 2 3 4 6 8 8 9 14 14 14 15 15 14 13 12 12 11 12 13 13 12 10 9 8 7 6 6 6 5 4 4 4
5 4 3 2 2 1 2 1 3 2 1 1 2 1 2 3 4 4 4 4 4 5 7 7 9 11 13 14 14 13 13 12 11 11 12 12 12 12 10 9 9 8 7 6 6 5 5 4 4
5 5 1 2 1 1 3 3 2 1 2 2 2 1 3 5 3 3 3 2 3 4 5 7 8 8 8 10 13 14 13 12 11 11 11 12 13 12 11 9 9 9 8 8 7 7 6 5 4
5 5 1 1 1 1 4 4 5 4 2 4 2 2 2 2 4 3 2 2 3 4 5 6 8 8 7 7 9 11 12 12 11 9 11 11 7 7 7 8 10 10 9 9 9 8 7 5 3
5 3 5 2 1 1 2 2 4 5 6 5 6 5 1 3 4 5 6 7 7 7 7 7 9 9 8 7 6 6 6 7 7 5 7 6 6 6 6 9 10 9 9 10 11 10 8 4 2
3 5 4 2 2 2 3 4 2 2 5 7 7 7 3 2 4 6 7 7 8 7 6 7 9 9 9 7 5 4 4 4 5 6 6 5 5 5 5 4 4 5 6 5 6 6 3 2 1
3 5 4 4 3 2 3 3 3 3 9 7 6 6 6 5 4 4 5 6 6 5 6 6 7 8 9 8 6 5 5 4 4 5 7 6 4 5 4 4 4 3 2 3 3 3 3 3 3
3 3 4 5 6 4 3 4 3 8 12 8 6 5 6 7 7 7 7 8 8 7 7 6 6 8 8 7 6 6 6 6 6 5 6 7 5 5 5 4 4 4 3 4 4 4 4 3 3
2 2 5 7 7 4 5 5 2 11 5 5 5 8 10 11 11 11 13 13 12 11 10 8 4 5 6 6 6 6 6 6 6 6 7 8 6 6 6 5 5 4 4 4 4 4 4 3 2
1 4 8 7 4 3 2 3 6 10 5 5 5 8 11 11 12 12 11 11 11 11 11 11 7 3 3 4 5 4 4 5 5 5 7 8 7 7 6 6 6 6 5 5 3 3 2 2 2
2 2 5 7 1 1 6 6 9 7 4 4 5 8 10 11 11 10 11 11 11 12 13 13 11 7 3 1 1 2 3 3 3 4 4 7 7 7 6 5 6 6 6 5 4 3 3 2 2
1 2 5 7 2 2 4 7 9 7 5 2 6 7 8 10 12 11 11 11 11 12 13 14 14 12 8 5 3 3 2 2 1 1 2 4 5 6 5 5 5 6 5 5 5 3 3 3 3
6 5 5 5 3 2 4 8 11 10 6 1 6 8 9 11 10 9 10 11 11 12 13 15 16 16 11 6 5 5 6 5 4 3 2 0 1 3 4 3 5 5 4 5 5 4 3 2 3
4 5 5 7 5 3 6 8 11 10 4 3 7 8 9 8 6 8 9 10 12 15 17 17 18 16 12 7 5 5 5 5 6 6 7 5 4 3 2 1 3 4 5 6 7 4 4 2 3
4 5 7 8 5 3 5 8 8 5 4 5 9 8 7 6 7 9 11 12 14 15 15 16 16 16 14 9 4 3 3 4 5 7 9 10 8 6 4 3 1 1 2 3 4 4 3 3 4
7 7 6 7 5 4 4 7 5 3 7 11 9 8 7 7 7 8 11 12 13 16 15 13 15 16 15 13 8 6 6 6 8 9 9 10 10 9 7 6 3 1 0 2 4 4 6 4 4
6 7 6 4 1 4 2 5 6 2 4 6 6 6 6 6 6 8 10 12 13 11 10 12 14 15 15 13 12 13 10 8 7 6 7 10 12 11 10 8 6 3 2 2 2 3 3 4 4
7 2 3 2 2 2 3 5 8 1 4 4 4 5 5 5 6 7 8 9 9 9 10 10 12 15 14 14 14 12 11 7 6 7 11 11 10 12 12 10 8 6 3 3 3 2 4 4 4
4 5 6 5 4 4 6 7 8 3 4 7 6 5 5 5 5 6 6 7 8 8 9 10 12 13 12 13 13 12 12 11 11 11 10 8 7 8 13 11 9 7 5 5 4 3 4 4 5
4 5 3 3 1 8 2 4 8 4 1 10 12 8 5 5 4 4 5 6 7 8 8 8 10 11 10 11 11 11 10 10 11 9 8 8 7 6 10 10 9 8 7 6 5 4 4 4 5
5 8 8 7 6 5 4 7 4 4 4 9 9 8 6 5 5 5 5 5 5 6 7 7 8 8 8 9 8 8 8 6 6 7 6 7 6 6 8 9 9 9 9 8 6 4 5 4 5
6 5 5 6 2 3 7 4 1 2 5 6 7 7 7 7 6 5 5 4 4 5 5 5 6 6 7 6 6 7 7 7 6 6 6 5 5 6 8 8 9 9 9 8 7 5 6 5 5
3 7 5 5 5 6 6 6 6 9 9 8 8 8 8 7 7 6 5 5 4 4 3 3 4 4 3 4 4 3 4 4 4 4 6 6 6 7 8 9 9 9 9 8 8 7 6 6 6
4 4 5 5 5 7 6 9 5 12 13 14 13 10 10 10 8 7 6 5 5 4 3 2 2 1 1 1 1 2 2 3 4 4 5 5 6 6 7 8 8 9 8 8 8 8 8 8 8
6 8 9 7 7 6 5 9 1 6 9 11 11 10 9 9 8 7 6 5 5 4 4 4 4 3 3 2 1 1 2 3 3 4 5 5 6 6 7 7 8 9 9 8 8 9 9 9 10
Wind_Direction
323 328 68 55 54 50 28 302 183 110 165 215 213 158 161 198 193 233 244 158 156 154 169 171 173 171 167 161 159 158 158 157 155 152 149 145 140 133 126 118 111 107 104 102 99 94 87 80 71
337 2 51 56 77 78 311 274 156 189 196 174 344 6 81 220 211 165 178 177 159 159 167 173 175 173 171 167 165 166 166 165 164 162 160 157 152 145 138 130 122 118 116 113 107 99 90 82 72
337 47 74 69 101 158 178 226 221 280 215 138 46 344 240 196 194 193 213 157 148 158 166 173 174 176 175 173 172 172 173 173 172 172 170 168 163 155 146 139 133 131 132 128 118 107 92 79 68
49 43 54 68 80 210 181 206 210 89 360 307 123 358 310 1 205 202 173 144 147 161 168 173 175 179 179 179 179 179 180 180 181 180 179 174 167 160 153 148 145 146 148 145 132 117 102 85 65
58 69 57 36 283 244 203 195 114 55 344 289 175 36 302 356 15 141 159 150 155 166 172 175 177 181 181 183 184 185 186 187 188 189 186 176 168 163 160 159 157 160 164 158 143 127 113 97 76
52 62 78 13 291 259 245 198 96 66 14 333 230 325 301 308 194 213 192 168 163 167 175 177 181 183 184 186 188 189 190 192 194 196 192 180 172 169 169 170 171 175 177 170 155 140 125 107 88
92 89 139 238 279 267 249 241 110 103 355 283 193 301 294 261 228 210 198 178 174 172 172 180 187 189 188 188 189 191 193 195 197 200 195 180 171 171 171 175 178 183 185 179 163 152 140 118 92
113 95 55 324 307 326 330 349 39 0 269 259 171 175 254 245 195 175 193 188 191 192 185 184 188 191 193 194 195 193 194 197 200 203 196 179 171 169 171 174 179 184 188 183 171 164 154 130 104
78 77 188 246 38 326 341 356 328 318 332 319 285 240 284 120 131 149 187 265 242 214 203 191 190 193 194 195 200 198 198 200 201 205 196 178 171 165 169 176 181 185 186 182 176 173 158 136 116
81 141 220 217 187 222 284 285 302 351 331 302 302 302 13 138 168 199 218 231 233 227 213 197 195 195 194 198 197 200 199 201 199 192 186 176 166 167 169 181 184 187 185 182 180 175 152 130 96
144 193 238 249 207 213 275 299 334 2 288 255 264 290 317 233 240 243 249 247 245 241 231 208 200 196 194 198 195 197 196 193 194 189 179 171 166 166 167 166 181 186 180 173 175 155 139 148 157
192 233 237 277 304 282 265 288 319 238 243 253 267 290 311 325 325 316 307 307 304 289 271 248 214 199 197 194 194 192 194 197 199 192 182 176 176 173 170 171 172 170 162 160 147 143 160 177 189
220 262 299 287 288 267 253 251 270 266 263 287 301 354 21 27 19 13 8 5 359 349 329 303 241 212 199 191 191 191 195 198 197 187 190 188 184 178 171 172 171 174 165 164 161 163 173 184 185
226 265 289 279 278 263 244 267 230 268 284 329 28 51 48 42 29 23 16 10 2 353 342 332 306 243 209 196 192 190 189 189 188 190 192 193 190 178 173 171 172 176 177 173 170 174 179 193 194
331 334 318 291 269 260 156 294 239 253 312 328 41 71 61 47 36 28 12 6 357 354 353 352 338 316 232 209 196 183 178 177 185 189 191 192 191 182 175 175 177 179 173 166 158 164 162 191 210
20 10 299 293 308 139 140 248 266 273 297 321 68 79 68 50 36 25 15 10 6 5 6 5 5 3 350 295 181 164 164 169 181 183 186 189 188 182 173 175 182 175 167 165 165 163 171 206 223
345 237 245 290 277 165 183 242 273 292 306 346 87 86 71 53 37 23 16 13 12 13 15 16 15 13 11 26 52 66 76 95 136 167 185 192 188 179 174 178 176 167 169 171 171 163 166 188 215
225 218 233 255 273 195 238 253 273 287 289 80 108 91 74 60 39 22 17 18 20 22 26 26 23 18 13 23 38 45 47 39 38 34 22 49 181 173 166 165 164 161 164 169 172 164 165 167 170
185 204 247 260 265 255 252 262 271 281 303 113 114 97 82 67 46 31 24 23 31 31 31 28 28 21 20 16 17 27 33 25 29 27 26 28 38 61 102 130 155 166 180 187 181 154 165 158 131
228 248 262 277 280 248 263 271 273 325 14 84 110 96 83 68 42 35 32 33 35 36 32 33 31 27 26 20 12 24 32 33 29 28 27 23 26 35 46 60 95 182 181 172 173 160 156 171 162
222 219 230 248 312 328 316 300 288 66 65 68 74 79 75 70 53 38 37 36 37 36 31 34 34 33 29 26 27 26 28 25 22 19 18 17 21 25 28 31 34 26 193 208 203 193 180 190 199
238 225 208 226 250 287 347 286 277 189 93 80 76 71 68 59 51 47 44 42 39 33 32 38 40 40 35 35 40 46 44 35 16 9 16 17 21 22 20 19 21 19 356 304 253 227 222 198 206
215 194 172 196 202 279 285 249 275 199 156 141 121 104 88 71 61 55 49 49 43 35 36 37 43 43 39 42 43 47 45 34 19 21 24 21 18 20 16 12 9 7 355 329 304 271 244 232 226
141 70 42 51 80 264 224 199 270 240 196 156 150 133 114 94 75 64 54 52 47 39 39 39 46 43 38 43 44 47 44 36 32 26 22 17 13 14 13 8 6 1 354 338 318 294 267 253 251
109 100 12 327 315 245 257 215 248 327 225 156 154 148 137 122 106 87 68 57 51 45 41 40 46 43 35 41 42 41 41 40 37 26 20 17 12 8 2 2 1 359 351 342 332 316 296 273 261
174 155 174 210 229 273 299 241 281 4 68 114 132 144 147 145 138 124 108 91 74 62 51 47 48 44 35 38 37 35 36 37 33 26 22 17 7 356 355 357 358 357 355 352 345 327 307 294 280
155 188 169 141 133 269 265 270 56 91 101 128 149 161 170 170 163 150 136 120 106 88 72 64 58 50 40 37 37 36 33 33 25 17 17 11 0 353 354 355 355 352 351 350 347 336 320 307 287
161 148 118 145 188 241 266 249 216 181 189 186 189 190 189 184 176 166 155 144 136 128 115 94 81 68 49 40 36 36 28 25 17 12 8 359 351 349 348 349 347 343 342 344 344 334 327 321 304
151 164 164 166 174 181 243 259 216 183 187 191 199 198 192 190 184 173 164 158 154 153 156 156 151 132 93 43 26 12 358 356 357 353 345 340 337 339 339 336 334 332 329 332 330 323 321 318 310
192 189 168 180 220 202 213 261 241 182 184 187 197 200 197 189 178 168 165 165 169 179 190 197 200 203 212 213 231 277 296 311 318 315 314 318 319 320 320 321 321 320 320 318 315 311 309 305 303